Waarnemingen

Advertentie
Mijn weer
Colmar, Frankrijk (7197): temperatuur & dauwpunt: 15.05.2019 01:00:00 - 21.05.2019 01:00:00 (CEST)Colmar, Frankrijk (7197): temperatuur 5cm: 15.05.2019 01:00:00 - 21.05.2019 01:00:00 (CEST)Colmar, Frankrijk (7197): temperatuur -20cm & temperatuur -100cm: 15.05.2019 01:00:00 - 21.05.2019 01:00:00 (CEST)Colmar, Frankrijk (7197): windsnelheid & windstoten: 15.05.2019 01:00:00 - 21.05.2019 01:00:00 (CEST)Colmar, Frankrijk (7197): windrichting: 15.05.2019 01:00:00 - 21.05.2019 01:00:00 (CEST)Colmar, Frankrijk (7197): luchtdruk: 15.05.2019 01:00:00 - 21.05.2019 01:00:00 (CEST)Colmar, Frankrijk (7197): zicht: 15.05.2019 01:00:00 - 21.05.2019 01:00:00 (CEST)Colmar, Frankrijk (7197): Zonneschijnduur: 15.05.2019 01:00:00 - 21.05.2019 01:00:00 (CEST)Colmar, Frankrijk (7197): neerslag: 15.05.2019 01:00:00 - 21.05.2019 01:00:00 (CEST)
Datum & Tijd tt [°C] td [°C] tt 5cm [°C] tt -20cm [°C] tt -100cm [°C] ff [km/u] ff [kn] fx [km/u] fx [kn] dd ppp [hPa] vv [km] sd [min] rr [mm]
21.05.2019 01:00:00 13,1 10,1 11,8 17,2 13,7 5 3 15 8 ZW 1010,9 20 0 0,2
21.05.2019 00:00:00 13,6 9,4 12,2 17,4 13,7 4 2 10 5 Z 1010,8 20 0 0,0
20.05.2019 23:00:00 13,8 9,8 13,1 17,7 13,7 2 1 9 5 ZZW 1010,3 20 0 0,0
20.05.2019 22:00:00 14,3 10,1 13,0 17,9 13,7 0 0 10 6 N 1009,6 20 0 0,0
20.05.2019 21:00:00 15,9 10,0 15,5 18,1 13,6 8 4 22 12 NNW 1008,8 20 0 0,0
20.05.2019 20:00:00 16,2 9,8 15,9 18,3 13,6 15 8 32 17 NW 1008,4 19 0 0,0
20.05.2019 19:00:00 16,8 10,6 14,7 18,4 13,6 18 10 32 17 NW 1007,6 20 0 0,0
20.05.2019 18:00:00 16,4 11,5 14,6 18,5 13,6 19 10 34 19 WNW 1006,9 13 0 0,0
20.05.2019 17:00:00 18,4 10,7 19,2 18,3 13,6 22 12 37 20 NW 1006,4 20 19 0,0
20.05.2019 16:00:00 21,1 10,9 21,1 17,9 13,6 14 8 21 11 NW 1005,7 20 18 0,0
20.05.2019 15:00:00 19,5 11,0 21,3 17,6 13,6 6 4 18 10 N 1006,1 20 4 0,0
20.05.2019 14:00:00 18,3 12,7 20,4 17,2 13,6 5 3 17 9 ZZO 1006,0 20 16 0,0
20.05.2019 13:00:00 18,0 12,9 19,0 16,8 13,6 9 5 16 9 ZW 1006,1 17 18 0,0
20.05.2019 12:00:00 16,2 12,9 16,9 16,5 13,5 9 5 15 8 ZZW 1006,2 13 0 0,0
20.05.2019 11:00:00 15,2 13,0 16,8 16,4 13,5 8 5 14 8 Z 1006,2 14 0 0,0
20.05.2019 10:00:00 14,6 13,3 13,8 16,4 13,5 6 3 11 6 ZZO 1005,7 15 0 0,0
20.05.2019 09:00:00 13,4 12,6 12,8 16,5 13,5 9 5 14 7 ZZW 1005,5 9 0 0,8
20.05.2019 08:00:00 12,8 12,2 12,7 16,6 13,5 6 3 10 5 ZW 1005,4 6 0 0,8
20.05.2019 07:00:00 12,8 12,2 12,5 16,7 13,5 5 3 8 5 ZO 1005,4 3,6 0 0,2
20.05.2019 06:00:00 12,7 12,1 12,5 16,9 13,5 5 3 9 5 ZZW 1005,2 6 0 0,2
20.05.2019 05:00:00 12,7 12,1 12,5 17,1 13,5 5 3 10 5 ZZW 1005,1 5 0 0,2
20.05.2019 04:00:00 13,0 12,4 12,7 17,3 13,4 5 3 8 4 ZZW 1005,1 4,6 0 1,0
20.05.2019 03:00:00 13,2 12,4 12,8 17,5 13,4 4 2 7 4 ZZW 1005,3 4,0 0 1,8
20.05.2019 02:00:00 13,6 12,3 12,9 17,7 13,4 4 2 7 4 ZW 1005,5 10 0 0,2
20.05.2019 01:00:00 14,1 12,8 13,5 17,8 13,4 4 2 10 5 ZZO 1005,4 20 0 0,0
20.05.2019 00:00:00 14,7 11,5 14,1 18,0 13,4 7 4 14 8 OZO 1005,2 20 0 0,0
19.05.2019 23:00:00 15,8 12,0 15,3 18,1 13,4 4 2 9 5 ZZO 1005,2 20 0 0,0
19.05.2019 22:00:00 16,8 10,2 16,2 18,3 13,4 5 3 13 7 NNO 1004,8 20 0 0,0
19.05.2019 21:00:00 17,4 10,7 17,0 18,3 13,3 6 3 16 8 N 1004,1 20 0 0,0
19.05.2019 20:00:00 18,3 10,6 18,4 18,3 13,4 8 5 14 8 NW 1003,8 20 21 0,0
19.05.2019 19:00:00 20,0 10,4 18,7 18,2 13,3 6 3 16 9 NNW 1003,3 20 54 0,0
19.05.2019 18:00:00 18,1 10,2 18,6 18,1 13,3 6 3 16 9 N 1003,5 20 0 0,0
19.05.2019 17:00:00 19,5 11,0 20,3 17,7 13,3 5 3 16 9 NNO 1003,6 20 38 0,0
19.05.2019 16:00:00 18,4 10,5 20,8 17,4 13,3 10 5 18 10 N 1004,1 20 16 0,0
19.05.2019 15:00:00 17,7 10,6 20,5 17,0 13,3 10 5 19 11 N 1004,6 20 0 0,0
19.05.2019 14:00:00 17,2 11,5 20,1 16,8 13,3 7 4 14 7 ONO 1004,9 20 0 0,0
19.05.2019 13:00:00 16,7 11,2 18,9 16,5 13,3 4 2 10 5 O 1005,1 20 3 0,0
19.05.2019 12:00:00 15,8 11,6 17,1 16,3 13,2 4 2 9 5 Z 1005,3 20 0 0,0
19.05.2019 11:00:00 14,7 11,7 15,1 16,2 13,2 2 1 6 4 NNW 1005,4 20 0 0,0
19.05.2019 10:00:00 13,7 11,9 13,9 16,2 13,2 2 1 9 5 ZO 1005,5 19 0 0,2
19.05.2019 09:00:00 13,3 11,5 13,4 16,3 13,2 3 1 5 3 N 1005,6 19 0 0,0
19.05.2019 08:00:00 12,6 11,3 12,3 16,4 13,2 3 2 6 3 ZZW 1005,6 17 0 0,0
19.05.2019 07:00:00 12,3 11,2 12,1 16,5 13,2 4 2 9 5 ZZW 1005,6 15 0 0,0
19.05.2019 06:00:00 12,4 11,1 12,2 16,7 13,2 6 4 14 7 ZW 1005,3 16 0 0,0
19.05.2019 05:00:00 12,5 11,2 12,3 16,9 13,2 8 4 15 8 Z 1005,3 20 0 0,0
19.05.2019 04:00:00 12,7 11,1 12,3 17,1 13,1 6 4 13 7 Z 1005,4 20 0 0,0
19.05.2019 03:00:00 13,0 10,7 12,5 17,3 13,1 6 3 11 6 ZZO 1005,5 20 0 0,0
19.05.2019 02:00:00 13,3 10,8 12,5 17,5 13,1 7 4 11 6 W 1005,5 20 0 0,0
19.05.2019 01:00:00 13,4 10,4 12,7 17,7 13,1 5 3 15 8 WZW 1006,1 20 0 0,0
19.05.2019 00:00:00 13,5 10,1 12,9 17,9 13,1 7 4 11 6 NW 1006,2 20 0 0,0
18.05.2019 23:00:00 14,3 9,7 13,8 18,2 13,0 6 3 20 11 N 1005,8 20 0 0,0
18.05.2019 22:00:00 15,1 9,9 14,7 18,4 13,1 10 5 24 13 NNO 1005,6 20 0 0,0
18.05.2019 21:00:00 16,1 9,7 15,8 18,5 13,0 16 8 31 17 NNO 1005,0 20 0 0,0
18.05.2019 20:00:00 17,7 9,6 17,7 18,6 13,0 9 5 17 9 NO 1004,3 20 0 0,0
18.05.2019 19:00:00 18,8 9,8 20,2 18,5 13,0 11 6 20 11 ONO 1003,6 20 0 0,0
18.05.2019 18:00:00 19,8 10,5 21,6 18,2 13,0 12 7 21 12 ONO 1003,3 20 26 0,0
18.05.2019 17:00:00 20,7 9,6 22,8 17,9 13,0 5 3 14 7 NNW 1003,3 20 10 0,0
18.05.2019 16:00:00 20,2 9,1 23,0 17,4 13,0 6 4 18 10 NNW 1003,7 20 19 0,0
18.05.2019 15:00:00 19,8 9,7 22,3 17,0 13,0 4 2 19 10 N 1004,2 20 7 0,0
18.05.2019 14:00:00 18,9 9,4 22,2 16,5 13,0 6 3 19 11 N 1004,6 20 18 0,0
18.05.2019 13:00:00 18,2 9,3 19,9 16,1 13,0 9 5 26 14 NNO 1004,8 20 7 0,0
18.05.2019 12:00:00 17,7 9,6 21,4 15,7 13,0 11 6 21 11 NNO 1005,1 20 52 0,0
18.05.2019 11:00:00 16,9 9,6 18,2 15,4 13,0 10 6 18 10 NO 1005,4 20 40 0,0
18.05.2019 10:00:00 15,1 9,2 16,8 15,2 13,0 3 2 8 5 N 1005,8 20 6 0,0
18.05.2019 09:00:00 13,7 9,7 13,6 15,2 12,9 3 2 6 3 ONO 1006,0 20 0 0,0
18.05.2019 08:00:00 12,4 9,8 12,2 15,2 12,9 0 0 6 3 N 1006,1 20 0 0,0
18.05.2019 07:00:00 11,7 9,4 10,9 15,4 12,9 0 0 8 4 N 1006,1 17 0 0,0
18.05.2019 06:00:00 11,3 9,0 10,8 15,5 12,9 3 2 6 4 ZO 1006,2 20 0 0,0
18.05.2019 05:00:00 11,5 8,7 11,0 15,6 12,8 3 1 8 4 ZO 1006,1 20 0 0,0
18.05.2019 04:00:00 11,6 8,8 11,1 15,9 12,9 4 2 10 6 ZO 1006,1 20 0 0,0
18.05.2019 03:00:00 12,1 8,8 11,3 16,1 12,9 5 3 12 6 Z 1006,1 20 0 0,0
18.05.2019 02:00:00 12,6 9,1 11,9 16,2 12,9 6 3 10 5 ZZW 1006,0 20 0 0,0
18.05.2019 01:00:00 12,9 8,8 12,2 16,5 12,9 6 3 11 6 Z 1006,0 20 0 0,0
18.05.2019 00:00:00 13,3 9,2 12,2 16,7 12,8 7 4 17 9 ZZO 1006,1 20 0 0,0
17.05.2019 23:00:00 13,7 8,7 13,1 16,9 12,8 8 4 19 11 ZZO 1006,2 20 0 0,0
17.05.2019 22:00:00 14,2 8,2 13,8 17,1 12,8 11 6 22 12 ZZW 1005,6 20 0 0,0
17.05.2019 21:00:00 15,2 8,2 14,5 17,2 12,8 8 4 20 11 Z 1004,9 20 0 0,0
17.05.2019 20:00:00 15,7 8,9 15,9 17,2 12,8 11 6 29 16 ZZW 1004,8 20 0 0,0
17.05.2019 19:00:00 16,6 8,0 17,1 17,2 12,8 18 10 36 19 ZZW 1004,8 20 0 0,0
17.05.2019 18:00:00 18,8 7,2 19,6 16,9 12,8 19 11 31 17 ZW 1004,6 20 17 0,0
17.05.2019 17:00:00 19,8 8,8 22,0 16,5 12,8 8 5 14 7 WZW 1004,4 20 19 0,0
17.05.2019 16:00:00 19,1 8,1 19,5 16,2 12,8 6 4 14 8 W 1004,6 20 7 0,0
17.05.2019 15:00:00 17,7 7,7 18,9 15,9 12,8 8 4 14 8 WZW 1004,9 20 0 0,0
17.05.2019 14:00:00 18,2 7,3 20,4 15,4 12,8 6 3 14 8 ZW 1004,8 20 4 0,0
17.05.2019 13:00:00 17,3 7,9 20,0 14,7 12,8 6 3 16 9 ZW 1005,1 20 20 0,0
17.05.2019 12:00:00 16,5 8,2 20,0 14,1 12,8 4 2 13 7 WZW 1005,4 20 44 0,0
17.05.2019 11:00:00 14,9 7,2 15,5 13,6 12,8 4 2 13 7 NW 1005,9 20 57 0,0
17.05.2019 10:00:00 13,0 7,7 12,9 13,4 12,8 7 4 14 8 N 1006,3 20 60 0,0
17.05.2019 09:00:00 10,5 7,2 10,3 13,4 12,7 7 4 15 8 N 1007,3 19 32 0,0
17.05.2019 08:00:00 9,6 7,0 7,7 13,6 12,7 8 4 14 8 NNO 1007,6 19 60 0,0
17.05.2019 07:00:00 6,7 6,0 1,1 13,9 12,7 4 2 7 4 NNO 1008,1 18 45 0,0
17.05.2019 06:00:00 4,2 3,3 0,8 14,2 12,8 3 2 6 3 NNW 1008,3 13 0 0,0
17.05.2019 05:00:00 5,1 3,9 1,7 14,5 12,7 4 2 10 6 ZW 1008,2 16 0 0,0
17.05.2019 04:00:00 4,7 3,8 1,7 14,9 12,7 5 3 8 4 ZZW 1008,3 13 0 0,0
17.05.2019 03:00:00 5,7 4,7 2,9 15,2 12,7 0 0 5 3 N 1008,5 18 0 0,0
17.05.2019 02:00:00 6,4 5,0 2,9 15,5 12,7 0 0 6 3 N 1009,1 20 0 0,0
17.05.2019 01:00:00 7,8 5,8 4,9 15,7 12,7 3 2 4 2 ZW 1009,6 20 0 0,0
17.05.2019 00:00:00 10,8 6,7 9,1 16,0 12,7 3 2 5 3 O 1009,9 20 0 0,0
16.05.2019 23:00:00 12,1 6,4 11,1 16,1 12,7 2 1 8 4 Z 1010,2 20 0 0,0
16.05.2019 22:00:00 12,7 6,3 11,9 16,3 12,7 5 3 9 5 ZZW 1010,4 20 0 0,0
16.05.2019 21:00:00 13,2 6,1 12,6 16,5 12,7 6 3 8 4 ZW 1010,4 20 0 0,0
16.05.2019 20:00:00 13,8 5,7 13,9 16,6 12,7 0 0 11 6 N 1010,7 20 0 0,0
16.05.2019 19:00:00 14,5 5,6 14,4 16,6 12,7 6 4 11 6 Z 1010,8 20 0 0,0
16.05.2019 18:00:00 15,7 5,0 16,6 16,5 12,7 6 3 18 10 ONO 1010,9 20 0 0,0
16.05.2019 17:00:00 15,8 5,1 18,1 16,3 12,7 6 3 21 11 O 1011,5 20 0 0,0
16.05.2019 16:00:00 15,7 4,7 18,5 15,8 12,7 10 6 24 13 NNO 1012,0 20 13 0,0
16.05.2019 15:00:00 16,2 6,0 17,9 15,2 12,7 9 5 26 14 NO 1012,7 20 16 0,0
16.05.2019 14:00:00 15,6 4,0 19,1 14,5 12,7 12 6 29 15 NO 1013,2 20 47 0,0
16.05.2019 13:00:00 14,3 3,7 16,2 13,8 12,6 11 6 27 15 N 1013,9 20 51 0,0
16.05.2019 12:00:00 12,5 3,2 13,4 13,4 12,6 12 7 35 19 NNO 1014,7 20 12 0,0
16.05.2019 11:00:00 12,6 3,5 14,0 12,9 12,6 12 7 31 17 NNO 1015,0 20 60 0,0
16.05.2019 10:00:00 10,5 2,6 9,9 12,8 12,6 14 8 29 16 NNO 1015,9 20 60 0,0
16.05.2019 09:00:00 8,8 1,7 8,7 12,8 12,6 13 7 25 13 N 1016,5 20 33 0,0
16.05.2019 08:00:00 7,7 1,1 6,9 13,0 12,6 13 7 29 15 NNO 1016,9 20 57 0,0
16.05.2019 07:00:00 6,9 0,6 5,5 13,3 12,6 13 7 27 14 N 1017,1 20 43 0,0
16.05.2019 06:00:00 6,0 0,1 5,4 13,6 12,6 13 7 27 15 N 1017,1 20 0 0,0
16.05.2019 05:00:00 6,3 0,0 5,6 13,9 12,6 13 7 24 13 N 1017,2 20 0 0,0
16.05.2019 04:00:00 6,3 0,6 5,1 14,3 12,6 12 7 20 11 N 1017,5 20 0 0,0
16.05.2019 03:00:00 6,0 1,5 4,6 14,6 12,6 10 5 14 8 N 1017,8 20 0 0,0
16.05.2019 02:00:00 6,5 1,4 3,9 15,0 12,6 8 5 14 7 N 1018,5 20 0 0,0
16.05.2019 01:00:00 7,7 1,5 2,0 15,3 12,6 8 5 16 8 NNO 1019,1 20 0 0,0
16.05.2019 00:00:00 7,0 1,1 2,8 15,7 12,6 3 2 9 5 ONO 1019,6 20 0 0,0
15.05.2019 23:00:00 8,7 0,9 4,1 16,1 12,6 4 2 12 6 NO 1019,9 20 0 0,0
15.05.2019 22:00:00 11,3 1,0 8,8 16,4 12,6 10 6 18 10 NO 1019,8 20 0 0,0
15.05.2019 21:00:00 12,3 0,4 10,6 16,6 12,6 6 4 24 13 NO 1019,7 20 0 0,0
15.05.2019 20:00:00 14,4 -0,1 14,4 16,7 12,6 16 9 34 18 NNO 1019,4 20 0 0,0
15.05.2019 19:00:00 14,9 -0,1 15,3 16,6 12,6 16 9 37 20 NNO 1019,3 20 14 0,0
15.05.2019 18:00:00 15,7 0,3 16,8 16,3 12,6 19 10 35 19 NO 1019,3 20 40 0,0
15.05.2019 17:00:00 16,2 0,7 19,5 15,9 12,5 19 10 46 25 NNO 1019,3 20 57 0,0
15.05.2019 16:00:00 16,3 0,4 18,2 15,3 12,6 20 11 44 24 NNO 1019,7 20 46 0,0
15.05.2019 15:00:00 15,5 0,5 16,5 14,6 12,5 20 11 76 41 NNO 1020,1 20 50 0,0
15.05.2019 14:00:00 14,7 0,1 17,0 13,9 12,6 22 12 50 27 NNO 1020,5 20 52 0,0
15.05.2019 13:00:00 14,2 0,8 16,9 13,3 12,5 21 11 46 25 NNO 1020,9 20 58 0,0
15.05.2019 12:00:00 13,8 1,1 15,2 12,7 12,5 21 11 45 24 NNO 1021,6 20 60 0,0
15.05.2019 11:00:00 12,6 1,0 12,9 12,3 12,5 19 11 42 23 NNO 1022,3 20 60 0,0
15.05.2019 10:00:00 11,1 1,6 10,5 12,2 12,5 17 9 35 19 NNO 1022,9 20 60 0,0
15.05.2019 09:00:00 9,0 2,1 8,7 12,2 12,5 16 9 29 16 NNO 1023,4 20 60 0,0
15.05.2019 08:00:00 7,4 1,7 6,3 12,4 12,5 10 5 27 15 NNO 1023,9 20 60 0,0
15.05.2019 07:00:00 6,0 1,1 4,5 12,6 12,5 13 7 26 14 NNO 1023,7 20 42 0,0
15.05.2019 06:00:00 5,2 0,4 4,0 13,0 12,5 13 7 26 14 NNO 1023,9 20 0 0,0
15.05.2019 05:00:00 5,0 0,0 4,0 13,3 12,5 10 5 24 13 NNO 1024,0 20 0 0,0
15.05.2019 04:00:00 5,7 0,0 4,3 13,6 12,5 8 4 21 11 NNO 1024,3 20 0 0,0
15.05.2019 03:00:00 6,0 -0,3 4,9 14,0 12,5 10 5 18 10 NNO 1024,5 20 0 0,0
15.05.2019 02:00:00 6,8 -0,2 5,9 14,3 12,5 11 6 23 12 N 1024,9 20 0 0,0
15.05.2019 01:00:00 7,5 -0,7 6,5 14,7 12,5 10 5 18 10 NNO 1025,1 20 0 0,0

tt = temperatuur
td = dauwpunt
tt 5cm = temperatuur 5cm
tt -20cm = temperatuur -20cm
tt -100cm = temperatuur -100cm
ff = windsnelheid
fx = windstoten
dd = windrichting
ppp = luchtdruk
vv = zicht
sd = Zonneschijnduur
rr = neerslag

Weerstations in de omgeving